[[{"header":{"parameterUnit":"m.s-1","parameterCategory":1,"la1":30.2991,"la2":30.254,"lo1":-89.0895,"lo2":-89.0444,"dy":0.0017,"dx":0.0017,"nx":28,"ny":28,"refTime":"2023-07-26T03:00:00:Z","depth":0,"parameterNumber":2,"parameterNumberName":"U-component_of_WINDS"},"data":[0,0,0,0,0,0,0,0,0,0,0,0,0,0,0,0,0,0,0,0,0,0,0,0,0,0,0,0,0,0,0,0,0,0,0,0,0,0,0,0,0,0,0,0,0,0,0,0,0,0,0,0,0,0,0,0,0,0,1.3373,1.3373,0,1.3345,1.3344,1.3344,1.3292,1.3291,1.329,1.3289,1.3264,1.3264,1.3264,0,0,0,0,0,0,0,0,0,0,0,0,0,1.3385,1.3385,1.3373,1.3373,1.3373,1.3345,1.3344,1.3344,1.3293,1.3291,1.329,1.3289,1.3264,1.3264,1.3264,0,0,0,0,0,0,0,0,0,0,0,0,0,1.3371,1.3385,1.3373,1.3344,1.3341,1.3345,1.3344,1.3344,1.3293,1.3291,1.329,1.3288,1.3264,1.3264,1.3264,1.3296,0,0,1.3265,1.3266,0,0,0,0,0,0,0,0,1.3372,1.337,1.3348,1.3346,1.3342,1.332,1.3339,1.3328,1.3293,1.3311,1.3289,1.3288,1.3284,1.3283,1.3281,1.3295,1.3294,1.3265,1.3266,1.3266,1.3266,0,0,0,0,0,0,0,1.3373,1.3371,1.3362,1.3348,1.3344,1.3332,1.3328,1.3337,1.3306,1.3309,1.3306,1.3303,1.3282,1.328,1.328,1.3294,1.3265,1.3266,1.3266,1.3266,1.3329,1.333,0,0,0,0,0,0,1.3378,1.3373,1.3363,1.3361,1.3353,1.3333,1.3329,1.3329,1.3306,1.3301,1.3304,1.33,1.3281,1.3279,1.3279,1.3311,1.3266,1.3266,1.3266,1.3327,1.3329,1.3331,0,0,0,0,0,0,1.3378,1.3377,1.3364,1.3366,1.3363,1.3334,1.3335,1.3329,1.3327,1.3302,1.3297,1.3308,1.3279,1.3278,1.3291,1.331,1.3266,1.3267,1.3326,1.3328,1.333,1.3379,0,0,0,0,0,0,1.3379,1.3378,1.339,1.3366,1.3363,1.3377,1.3336,1.333,1.3328,1.3323,1.3304,1.3299,1.3278,1.3291,1.3291,1.3309,1.3267,1.3324,1.3327,1.3329,1.3375,1.3382,1.3388,0,0,0,0,0,1.3379,1.3406,1.339,1.339,1.3377,1.3378,1.3376,1.335,1.3329,1.3341,1.3324,1.33,1.3308,1.3293,1.3293,1.3311,1.3323,1.3326,1.3329,1.3372,1.3381,1.3388,0,0,0,0,0,0,1.3435,1.3403,1.3385,1.3405,1.3394,1.3369,1.3383,1.3361,1.3357,1.3352,1.3321,1.3317,1.3334,1.3324,1.3308,1.3339,1.3311,1.3315,1.3344,1.3352,1.3359,1.336,1.3267,0,0,0,0,0,1.3449,1.3451,1.3424,1.3444,1.3439,1.3412,1.3412,1.3392,1.338,1.3376,1.336,1.3351,1.335,1.3351,1.335,1.3374,1.3368,1.3387,1.3394,1.3399,1.3402,1.341,1.3418,1.3341,1.3341,1.3341,0,0,1.3479,1.3462,1.3466,1.3455,1.3444,1.3447,1.3409,1.3415,1.3416,1.3377,1.3387,1.3375,1.3363,1.338,1.3387,1.3373,1.3422,1.3403,1.3408,1.3407,1.3415,1.3422,1.3428,1.3344,1.3343,1.3343,0,0,1.3534,1.3522,1.3536,1.3525,1.3509,1.349,1.3493,1.3471,1.3461,1.347,1.3439,1.3442,1.3444,1.3434,1.343,1.3479,1.3455,1.3479,1.3513,1.3522,1.3527,1.3533,1.3547,1.3553,1.3483,1.3483,1.3483,0,1.3573,1.3576,1.3546,1.3552,1.3547,1.351,1.3523,1.3515,1.35,1.3497,1.3481,1.3479,1.3469,1.3482,1.3493,1.3492,1.3494,1.348,1.3529,1.3534,1.3538,1.3551,1.3557,1.3486,1.3485,1.3485,1.3485,0,1.3623,1.3625,1.3639,1.3621,1.3619,1.3629,1.36,1.3601,1.3581,1.3564,1.3573,1.3558,1.3551,1.3554,1.3536,1.3564,1.3554,1.3534,1.3505,1.3548,1.356,1.3565,1.349,1.3489,1.3488,1.3487,0,0,1.3713,1.3677,1.3682,1.3672,1.365,1.3652,1.3659,1.3651,1.3651,1.3642,1.3646,1.3647,1.3626,1.3621,1.3602,1.3611,1.3646,1.3589,1.3588,1.3597,1.3672,1.3685,1.3692,1.3631,1.3632,1.3633,1.3672,0,1.3761,1.377,1.3742,1.3758,1.3758,1.3722,1.3728,1.3716,1.37,1.3698,1.3681,1.368,1.3655,1.3651,1.3658,1.364,1.366,1.3637,1.3634,1.3634,1.3635,1.3699,1.3713,1.3751,1.3677,1.3678,1.3678,0,1.3818,1.3808,1.3824,1.3797,1.3796,1.3803,1.3791,1.379,1.3774,1.3762,1.3755,1.3731,1.3736,1.371,1.3716,1.3701,1.3698,1.3689,1.369,1.3686,1.3657,1.3694,1.3763,1.3767,1.3686,1.3685,1.3685,0,1.3878,1.3869,1.3876,1.3869,1.384,1.3844,1.3832,1.3815,1.3811,1.3801,1.3798,1.379,1.3785,1.378,1.3755,1.3738,1.3762,1.3735,1.3751,1.3752,1.3756,1.3756,1.3822,1.3759,1.3759,1.3759,1.3759,0,1.3933,1.3943,1.3901,1.3905,1.3915,1.3883,1.3894,1.3879,1.3863,1.3863,1.3833,1.3835,1.3802,1.38,1.3781,1.3787,1.3786,1.3775,1.3769,1.3776,1.3777,1.3772,1.3768,1.376,1.376,1.376,1.376,0,1.4,1.3973,1.3977,1.3948,1.3941,1.3949,1.3924,1.3926,1.3908,1.3908,1.3907,1.3878,1.3873,1.3847,1.3838,1.3825,1.3837,1.3827,1.3841,1.3837,1.3853,1.3851,1.3917,1.3923,1.3859,1.386,1.386,0,1.4036,1.4042,1.4012,1.4009,1.3997,1.3994,1.3988,1.3957,1.3953,1.3934,1.3938,1.393,1.3922,1.3916,1.3895,1.3887,1.3875,1.3899,1.3874,1.3879,1.3872,1.387,1.387,1.3903,1.3904,1.3905,1.3906,0,1.4101,1.4086,1.4078,1.4065,1.4058,1.4047,1.4034,1.4034,1.4,1.3996,1.3989,1.3983,1.3971,1.3963,1.3951,1.3939,1.3916,1.3914,1.3916,1.3922,1.3929,1.3922,1.3853,1.3912,1.3911,1.3911,1.391,1.391,1.4151,1.4153,1.4131,1.4123,1.4109,1.4097,1.4097,1.4077,1.407,1.4056,1.4039,1.4034,1.4017,1.3997,1.3987,1.3983,1.397,1.3975,1.3976,1.3977,1.3979,1.3931,1.3981,1.3981,1.398,1.398,1.398,0,1.4211,1.4195,1.4187,1.4168,1.4161,1.4139,1.4123,1.4119,1.4114,1.4099,1.409,1.4081,1.4073,1.405,1.4039,1.404,1.4029,1.4038,1.4037,1.4034,1.3992,1.3989,1.4047,1.4047,1.4047,1.4047,1.4047,1.4047,1.4242,1.4243,1.4226,1.422,1.4204,1.4197,1.4189,1.4177,1.4164,1.4155,1.4147,1.4131,1.4112,1.41,1.4091,1.4084,1.408,1.4092,1.4082,1.4044,1.4037,1.4031,1.4028,1.4092,1.4093,1.4123,1.4124,1.4124]},{"header":{"parameterUnit":"m.s-1","parameterCategory":1,"la1":30.2991,"la2":30.254,"lo1":-89.0895,"lo2":-89.0444,"dy":0.0017,"dx":0.0017,"nx":28,"ny":28,"refTime":"2023-07-26T03:00:00:Z","depth":0,"parameterNumber":3,"parameterNumberName":"V-component_of_WINDS"},"data":[0,0,0,0,0,0,0,0,0,0,0,0,0,0,0,0,0,0,0,0,0,0,0,0,0,0,0,0,0,0,0,0,0,0,0,0,0,0,0,0,0,0,0,0,0,0,0,0,0,0,0,0,0,0,0,0,0,0,2.8482,2.8483,0,2.851,2.851,2.851,2.8478,2.8477,2.8476,2.8475,2.8502,2.8504,2.8506,0,0,0,0,0,0,0,0,0,0,0,0,0,2.8399,2.8401,2.8482,2.8483,2.8483,2.851,2.851,2.8511,2.8478,2.8477,2.8475,2.8474,2.8502,2.8504,2.8506,0,0,0,0,0,0,0,0,0,0,0,0,0,2.8432,2.8401,2.8482,2.847,2.8469,2.851,2.851,2.8511,2.8479,2.8477,2.8475,2.8473,2.8501,2.8504,2.8506,2.856,0,0,2.8515,2.8516,0,0,0,0,0,0,0,0,2.843,2.8435,2.8472,2.8471,2.847,2.8489,2.8491,2.8527,2.8479,2.8475,2.8475,2.8473,2.8499,2.8502,2.8511,2.8561,2.8562,2.8515,2.8517,2.8518,2.8519,0,0,0,0,0,0,0,2.8428,2.8434,2.8493,2.8472,2.8471,2.8462,2.8465,2.8498,2.8497,2.8475,2.8473,2.8477,2.8498,2.8509,2.8512,2.8563,2.8515,2.8518,2.8519,2.852,2.8654,2.8655,0,0,0,0,0,0,2.8427,2.8432,2.8492,2.8494,2.8445,2.8465,2.8468,2.8485,2.8497,2.8497,2.8478,2.8475,2.8505,2.8508,2.8512,2.8573,2.8518,2.8521,2.8522,2.8652,2.8654,2.8656,0,0,0,0,0,0,2.8425,2.8433,2.8491,2.8462,2.8469,2.8469,2.8487,2.8486,2.8496,2.8499,2.8498,2.8489,2.8503,2.8509,2.8547,2.8573,2.8522,2.8525,2.865,2.8652,2.8655,2.8695,0,0,0,0,0,0,2.8423,2.8432,2.8454,2.8463,2.8471,2.8527,2.8489,2.8488,2.8501,2.8497,2.8509,2.8509,2.8502,2.8543,2.855,2.8576,2.8527,2.8647,2.8651,2.8654,2.8692,2.8699,2.8706,0,0,0,0,0,2.842,2.8465,2.8455,2.8462,2.8497,2.8528,2.8533,2.8525,2.8503,2.8524,2.8525,2.8508,2.857,2.8548,2.8555,2.8582,2.8645,2.865,2.8654,2.8689,2.8698,2.8706,0,0,0,0,0,0,2.8459,2.8466,2.8455,2.8504,2.8516,2.8523,2.8548,2.8535,2.8553,2.8549,2.8538,2.8541,2.8581,2.8586,2.8561,2.8632,2.8604,2.861,2.8628,2.8637,2.8643,2.864,2.8529,0,0,0,0,0,2.8473,2.8499,2.8503,2.8546,2.8552,2.8549,2.8563,2.8555,2.8567,2.8572,2.8576,2.8587,2.8609,2.8623,2.8644,2.8693,2.8693,2.8715,2.8722,2.8727,2.8732,2.8755,2.8764,2.867,2.867,2.867,0,0,2.8503,2.851,2.8527,2.8553,2.8562,2.8586,2.8554,2.8582,2.86,2.8576,2.8612,2.8615,2.8627,2.8671,2.869,2.8676,2.8758,2.8733,2.8737,2.8739,2.876,2.8769,2.8777,2.8673,2.8672,2.8672,0,0,2.8569,2.8578,2.8613,2.8621,2.8633,2.8631,2.8639,2.8648,2.8648,2.8685,2.8666,2.8687,2.8725,2.8733,2.8742,2.8808,2.8792,2.8815,2.8851,2.8873,2.888,2.8887,2.8907,2.8915,2.882,2.882,2.882,0,2.8605,2.8642,2.8632,2.8661,2.8672,2.865,2.8684,2.8693,2.8711,2.8719,2.8703,2.8748,2.8755,2.8798,2.8813,2.8823,2.883,2.8813,2.888,2.8887,2.8892,2.8912,2.892,2.8823,2.8822,2.8822,2.8822,0,2.8682,2.8708,2.8735,2.8751,2.8766,2.8797,2.8791,2.8806,2.8797,2.8796,2.8831,2.8838,2.8858,2.8868,2.886,2.8909,2.8899,2.8882,2.8853,2.8904,2.8922,2.8929,2.8826,2.8825,2.8825,2.8824,0,0,2.8775,2.8784,2.8793,2.8799,2.881,2.8829,2.8858,2.8877,2.8888,2.8902,2.8924,2.8956,2.8939,2.8949,2.8942,2.8962,2.9009,2.8942,2.8942,2.8951,2.906,2.9071,2.908,2.9,2.9001,2.9002,2.9058,0,2.8838,2.8888,2.8879,2.8927,2.8949,2.8928,2.8952,2.8961,2.896,2.8978,2.8977,2.8998,2.8976,2.8981,2.9,2.9,2.903,2.8996,2.9018,2.9019,2.9014,2.909,2.9102,2.9155,2.9065,2.9067,2.9067,0,2.892,2.8934,2.8983,2.8987,2.8996,2.9019,2.9033,2.9051,2.9059,2.9057,2.9067,2.9055,2.9082,2.9053,2.9089,2.9066,2.9074,2.9075,2.9077,2.9077,2.9045,2.9089,2.9172,2.9178,2.9079,2.9078,2.9077,0,2.8978,2.9009,2.9042,2.9048,2.9054,2.907,2.9073,2.908,2.909,2.9103,2.9109,2.9126,2.9134,2.9146,2.9138,2.9118,2.9174,2.9146,2.9171,2.9171,2.9182,2.9181,2.9264,2.9192,2.9192,2.9192,2.9192,0,2.9048,2.9079,2.9068,2.9088,2.912,2.9109,2.9142,2.9142,2.9148,2.9166,2.915,2.9168,2.9157,2.9174,2.9168,2.9196,2.9201,2.9199,2.9196,2.9199,2.9199,2.9203,2.9198,2.9194,2.9193,2.9193,2.9193,0,2.9119,2.9113,2.9146,2.9148,2.9149,2.9173,2.9174,2.9192,2.9189,2.9213,2.9218,2.9213,2.9232,2.9225,2.9245,2.9241,2.9277,2.9271,2.9273,2.9271,2.9296,2.9292,2.9382,2.9392,2.9316,2.9317,2.9318,0,2.9163,2.9185,2.9189,2.92,2.9204,2.9222,2.9232,2.9221,2.9232,2.9241,2.9257,2.9274,2.9287,2.9317,2.9315,2.9329,2.9322,2.9353,2.9324,2.9325,2.9319,2.9317,2.9317,2.9358,2.9359,2.9359,2.936,0,2.9241,2.9236,2.9251,2.9264,2.9276,2.9286,2.9294,2.9304,2.9294,2.9307,2.9324,2.9334,2.9353,2.9369,2.9381,2.9384,2.9369,2.9369,2.9375,2.9377,2.9376,2.9374,2.9286,2.9367,2.9366,2.9365,2.9365,2.9365,2.9298,2.9315,2.9319,2.9335,2.934,2.9348,2.9363,2.9361,2.9376,2.939,2.9383,2.9403,2.9408,2.9423,2.9427,2.9442,2.943,2.944,2.9441,2.9443,2.9445,2.9375,2.9445,2.9444,2.9444,2.9444,2.9444,0,2.9372,2.9373,2.9388,2.9399,2.9411,2.9396,2.9404,2.9415,2.9432,2.9438,2.945,2.9469,2.9484,2.9482,2.9495,2.9507,2.9501,2.9511,2.9509,2.9509,2.9457,2.9449,2.9516,2.9516,2.9516,2.9516,2.9515,2.9515,2.9412,2.944,2.9435,2.9464,2.9465,2.9483,2.9488,2.9495,2.9499,2.952,2.9532,2.953,2.9532,2.9545,2.9557,2.9556,2.9561,2.9573,2.9569,2.952,2.9513,2.9506,2.9498,2.9575,2.9575,2.962,2.962,2.962]}]]